User: anonymous   Login
Location: Newport
(44.6370°N, 124.0520°W)
Time: 01:35:12
(UTC-07:00)
Language:

N. Korean satellite - Orbit

View from above orbital plane
View from above orbital plane
View from above satellite
View from above satellite

Ground track
Ground track

The orbit data is extracted from the following two-line orbital elements,

1 39026U 12072A   18227.92587972 +.00001340 +00000-0 +52231-4 0  9996
2 39026 097.2105 236.2638 0040788 110.1813 250.3820 15.26902120314712
Epoch (UTC): 15 August 2018 22:13:16
Eccentricity: 0.0040788
inclination: 97.2105°
perigee height: 457 km
apogee height: 513 km
right ascension of ascending node: 236.2638°
argument of perigee: 110.1813°
revolutions per day: 15.26902120
mean anomaly at epoch: 250.3820°
orbit number at epoch: 31471

The dashed part of the orbit path shows where the satellite is in the earth's shadow,  

DLR